Regional Weather Roundup
Issued by NWS Midland/Odessa, TX

Skip options and go directly to product.
Home | Oldest Version | Previous Version | Current Version | All | Text Only | Save Text | Print | Product List | Glossary Off

Skip product version selection by date and time.   

635
ASUS44 KMAF 261310
RWRMAF
MIDLAND AREA WEATHER ROUNDUP
NATIONAL WEATHER SERVICE MIDLAND TX
800 AM CDT SAT JUL 26 2014

...IN SOUTHWEST TEXAS AND SOUTHEAST NEW MEXICO...

CITY           SKY/WX    TMP DP  RH WIND       PRES   REMARKS
ALPINE         CLEAR     73  56  55 SW7       30.19S
ANDREWS        FAIR      74  61  65 S6        30.07R
ARTESIA        CLEAR     72  57  60 S6        30.06R
BIG SPRING     SUNNY     79  64  60 S10       30.06R
CARLSBAD       CLEAR     74  56  53 SE7       30.03R
DRYDEN           N/A     78  68  71 E5        30.01R
FORT STOCKTON  SUNNY     73  61  65 S9        30.04R
GUAD PASS        N/A     72  55  55 MISG        N/A
HOBBS          SUNNY     70  59  68 CALM      30.09R
MARFA          CLEAR     63  55  77 N6        30.19R
MIDLAND AIRPK  SUNNY     77  63  60 S7        30.05R
MIDLAND INTL   SUNNY     76  63  64 S6        30.04R
ODESSA         SUNNY     76  62  62 S9        30.05R
PECOS          CLEAR     71  60  69 CALM      30.00R
PRESIDIO       FAIR      80  57  45 NE3       30.02R
SEMINOLE       SUNNY     71  61  69 CALM      30.08S
SNYDER         SUNNY     75  63  66 S7        30.05R
WINK           SUNNY     75  63  66 SE9       30.01R
$$
...OTHER STATIONS IN TEXAS...

CITY           SKY/WX    TMP DP  RH WIND       PRES   REMARKS
ABILENE        SUNNY     78  66  66 S10       30.02R
AMARILLO       SUNNY     75  57  53 SW16      30.05S
AUSTIN         MOSUNNY   76  75  97 S6        30.03R FOG
BROWNSVILLE    SUNNY     81  78  91 SE7       30.00R
CORPUS CHRISTI MOSUNNY   78  76  93 S8        30.00R
DALLAS FTW     MOSUNNY   81  71  71 S9        29.99R
DEL RIO        SUNNY     78  69  73 E14       29.97R
EL PASO        CLEAR     78  45  30 CALM      30.06R
HOUSTON INT    PTSUNNY   80  76  87 S3        30.04R
LUBBOCK        MOSUNNY   75  59  57 SW10      30.06R
SAN ANGELO     SUNNY     76  66  71 S12       30.02R
SAN ANTONIO    SUNNY     78  73  84 SE7       30.03R
WACO           SUNNY     79  73  82 S12       30.02R
WICHITA FALLS  NOT AVBL
$$
...OTHER LOCATIONS IN NEW MEXICO...

CITY           SKY/WX    TMP DP  RH WIND       PRES   REMARKS
ALAMAGORDO     CLEAR     68  41  37 W3        30.09R
ALBUQUERQUE    PTCLDY    72  45  37 E10       30.17R
CANNON AFB     SUNNY     71  57  62 S9        30.11S
CLOVIS         NOT AVBL
HOLLOMAN AFB   CLEAR     71  41  34 SE6       30.07R
ROSWELL        CLEAR     73  56  54 S9        30.05R
RUIDOSO        PTCLDY    68  41  37 NW5       30.30R
SANTA FE       CLEAR     65  49  56 N7        30.25R
TRUTH OR CONSE CLEAR     77  48  35 NW8       30.12R
TUCUMCARI      MOSUNNY   78  56  46 SW14      30.05R
$$

USA.gov is the U.S. government's official web portal to all federal, state and local government web resources and services.